weather.gov     
National Weather Service

Terminal Aerodrome Forecast
NWS Homepage
This page is being discontinued on March 12, 2014.
The same data is available at this site. Please update your bookmarks.
Thank you, and we apologize for the inconvenience.
Please send an email to SR-SRH.Webmaster@noaa.gov with any concerns.


Current Version
Previous Version:    01  02  03  04  05  06  07  08  09  10  11  12  13  14  15  16  17  18  19  20  21  22  23  
[Printable]
973
FTUS42 KMLB 211100
TAFDAB
TAF
KDAB 211137Z 2112/2212 02003KT P6SM SCT004 BKN100
     FM211400 19004KT P6SM SCT030 OVC080
     FM211800 22007KT P6SM VCSH SCT020 OVC050
     FM220200 VRB03KT P6SM VCSH SCT015 BKN025 OVC040
     FM220600 00000KT 5SM SHRA BKN015 OVC030=


U.S. Dept. of Commerce
NOAA National Weather Service
1325 East West Highway
Silver Spring, MD 20910
E-mail: w-nws.webmaster@noaa.gov
Page last modified: May 16, 2007
NATIONAL WEATHER SERVICE: for Safety, for Work, for Fun - FOR LIFE